Year,Month,Day,Hour,Minute,Value (Times are PST for windspeed in km/hr)
2011,03,02,00,00,0.00
2011,03,02,00,01,0.00
2011,03,02,00,02,0.00
2011,03,02,00,03,0.00
2011,03,02,00,04,0.00
2011,03,02,00,05,0.00
2011,03,02,00,06,0.00
2011,03,02,00,07,0.00
2011,03,02,00,08,0.00
2011,03,02,00,09,0.00
2011,03,02,00,10,0.00
2011,03,02,00,11,0.00
2011,03,02,00,12,0.00
2011,03,02,00,13,0.00
2011,03,02,00,14,0.00
2011,03,02,00,15,0.00
2011,03,02,00,16,0.00
2011,03,02,00,17,0.00
2011,03,02,00,18,0.00
2011,03,02,00,19,0.00
2011,03,02,00,20,0.00
2011,03,02,00,21,0.00
2011,03,02,00,22,0.00
2011,03,02,00,23,0.00
2011,03,02,00,24,0.00
2011,03,02,00,25,0.00
2011,03,02,00,26,0.00
2011,03,02,00,27,0.00
2011,03,02,00,28,0.00
2011,03,02,00,29,0.00
2011,03,02,00,30,0.00
2011,03,02,00,31,0.00
2011,03,02,00,32,0.00
2011,03,02,00,33,0.00
2011,03,02,00,34,0.00
2011,03,02,00,35,0.00
2011,03,02,00,36,0.00
2011,03,02,00,37,0.00
2011,03,02,00,38,0.00
2011,03,02,00,39,0.00
2011,03,02,00,40,0.00
2011,03,02,00,41,0.00
2011,03,02,00,42,0.00
2011,03,02,00,43,0.00
2011,03,02,00,44,0.00
2011,03,02,00,45,0.00
2011,03,02,00,46,0.00
2011,03,02,00,47,0.00
2011,03,02,00,48,0.00
2011,03,02,00,49,0.00
2011,03,02,00,50,0.00
2011,03,02,00,51,0.00
2011,03,02,00,52,0.00
2011,03,02,00,53,0.00
2011,03,02,00,54,0.00
2011,03,02,00,55,0.00
2011,03,02,00,56,0.00
2011,03,02,00,57,0.00
2011,03,02,00,58,0.00
2011,03,02,00,59,0.00
2011,03,02,01,00,0.00
2011,03,02,01,01,0.00
2011,03,02,01,02,0.00
2011,03,02,01,03,0.00
2011,03,02,01,04,0.00
2011,03,02,01,05,0.00
2011,03,02,01,06,0.00
2011,03,02,01,07,0.00
2011,03,02,01,08,0.00
2011,03,02,01,09,0.00
2011,03,02,01,10,0.00
2011,03,02,01,11,0.00
2011,03,02,01,12,0.00
2011,03,02,01,13,0.00
2011,03,02,01,14,0.00
2011,03,02,01,15,0.00
2011,03,02,01,16,0.00
2011,03,02,01,17,0.00
2011,03,02,01,18,0.00
2011,03,02,01,19,0.00
2011,03,02,01,20,0.00
2011,03,02,01,21,0.00
2011,03,02,01,22,0.00
2011,03,02,01,23,0.00
2011,03,02,01,24,0.00
2011,03,02,01,25,0.00
2011,03,02,01,26,0.00
2011,03,02,01,27,0.00
2011,03,02,01,28,0.00
2011,03,02,01,29,0.00
2011,03,02,01,30,0.00
2011,03,02,01,31,0.00
2011,03,02,01,32,0.00
2011,03,02,01,33,0.00
2011,03,02,01,34,0.00
2011,03,02,01,35,0.00
2011,03,02,01,36,0.00
2011,03,02,01,37,0.00
2011,03,02,01,38,0.00
2011,03,02,01,39,0.00
2011,03,02,01,40,0.00
2011,03,02,01,41,0.00
2011,03,02,01,42,0.00
2011,03,02,01,43,0.00
2011,03,02,01,44,0.00
2011,03,02,01,45,0.00
2011,03,02,01,46,0.00
2011,03,02,01,47,0.00
2011,03,02,01,48,0.00
2011,03,02,01,49,0.00
2011,03,02,01,50,0.00
2011,03,02,01,51,0.00
2011,03,02,01,52,0.00
2011,03,02,01,53,0.00
2011,03,02,01,54,0.00
2011,03,02,01,55,0.00
2011,03,02,01,56,0.00
2011,03,02,01,57,0.00
2011,03,02,01,58,0.00
2011,03,02,01,59,0.00
2011,03,02,02,00,0.00
2011,03,02,02,01,0.00
2011,03,02,02,02,0.00
2011,03,02,02,03,0.00
2011,03,02,02,04,0.00
2011,03,02,02,05,0.00
2011,03,02,02,06,0.00
2011,03,02,02,07,0.00
2011,03,02,02,08,0.00
2011,03,02,02,09,0.00
2011,03,02,02,10,0.00
2011,03,02,02,11,0.00
2011,03,02,02,12,0.00
2011,03,02,02,13,0.00
2011,03,02,02,14,0.00
2011,03,02,02,15,0.00
2011,03,02,02,16,0.00
2011,03,02,02,17,0.00
2011,03,02,02,18,0.00
2011,03,02,02,19,0.00
2011,03,02,02,20,0.00
2011,03,02,02,21,0.00
2011,03,02,02,22,0.00
2011,03,02,02,23,0.00
2011,03,02,02,24,0.00
2011,03,02,02,25,0.70
2011,03,02,02,26,0.00
2011,03,02,02,27,0.00
2011,03,02,02,28,0.00
2011,03,02,02,29,0.00
2011,03,02,02,30,0.00
2011,03,02,02,31,0.00
2011,03,02,02,32,0.00
2011,03,02,02,33,0.00
2011,03,02,02,34,0.00
2011,03,02,02,35,0.00
2011,03,02,02,36,0.00
2011,03,02,02,37,0.00
2011,03,02,02,38,0.00
2011,03,02,02,39,0.00
2011,03,02,02,40,0.80
2011,03,02,02,41,0.00
2011,03,02,02,42,0.00
2011,03,02,02,43,0.80
2011,03,02,02,44,2.60
2011,03,02,02,45,0.00
2011,03,02,02,46,0.00
2011,03,02,02,47,0.00
2011,03,02,02,48,0.00
2011,03,02,02,49,0.00
2011,03,02,02,50,0.00
2011,03,02,02,51,0.00
2011,03,02,02,52,0.00
2011,03,02,02,53,0.00
2011,03,02,02,54,0.70
2011,03,02,02,55,2.10
2011,03,02,02,56,0.00
2011,03,02,02,57,0.00
2011,03,02,02,58,0.60
2011,03,02,02,59,0.80
2011,03,02,03,00,0.00
2011,03,02,03,01,0.00
2011,03,02,03,02,0.00
2011,03,02,03,03,0.00
2011,03,02,03,06,0.00
2011,03,02,03,07,0.00
2011,03,02,03,08,0.00
2011,03,02,03,09,0.00
2011,03,02,03,10,0.00
2011,03,02,03,11,0.00
2011,03,02,03,12,1.20
2011,03,02,03,13,0.10
2011,03,02,03,14,0.00
2011,03,02,03,15,0.00
2011,03,02,03,16,0.00
2011,03,02,03,17,0.00
2011,03,02,03,18,0.00
2011,03,02,03,19,0.00
2011,03,02,03,20,0.00
2011,03,02,03,21,0.00
2011,03,02,03,22,0.00
2011,03,02,03,23,0.00
2011,03,02,03,24,0.00
2011,03,02,03,25,0.00
2011,03,02,03,26,0.00
2011,03,02,03,27,0.00
2011,03,02,03,28,0.00
2011,03,02,03,29,0.00
2011,03,02,03,30,0.00
2011,03,02,03,31,0.00
2011,03,02,03,32,0.00
2011,03,02,03,33,0.00
2011,03,02,03,34,0.20
2011,03,02,03,35,1.20
2011,03,02,03,36,0.10
2011,03,02,03,37,0.10
2011,03,02,03,38,1.10
2011,03,02,03,39,2.40
2011,03,02,03,40,1.90
2011,03,02,03,41,0.50
2011,03,02,03,42,0.20
2011,03,02,03,43,0.00
2011,03,02,03,44,0.00
2011,03,02,03,45,0.70
2011,03,02,03,46,0.80
2011,03,02,03,47,2.80
2011,03,02,03,48,2.40
2011,03,02,03,49,0.40
2011,03,02,03,50,0.00
2011,03,02,03,51,0.00
2011,03,02,03,52,0.00
2011,03,02,03,53,0.00
2011,03,02,03,54,0.00
2011,03,02,03,55,0.00
2011,03,02,03,56,0.00
2011,03,02,03,57,0.00
2011,03,02,03,58,0.00
2011,03,02,03,59,0.00
2011,03,02,04,00,0.00
2011,03,02,04,01,0.60
2011,03,02,04,02,1.80
2011,03,02,04,03,0.20
2011,03,02,04,04,0.00
2011,03,02,04,05,0.00
2011,03,02,04,06,0.00
2011,03,02,04,07,0.30
2011,03,02,04,08,1.60
2011,03,02,04,09,0.80
2011,03,02,04,10,0.00
2011,03,02,04,11,0.00
2011,03,02,04,12,0.20
2011,03,02,04,13,1.70
2011,03,02,04,14,0.30
2011,03,02,04,15,1.40
2011,03,02,04,16,0.40
2011,03,02,04,17,0.00
2011,03,02,04,18,0.00
2011,03,02,04,19,0.00
2011,03,02,04,20,0.20
2011,03,02,04,21,0.90
2011,03,02,04,22,2.00
2011,03,02,04,23,1.00
2011,03,02,04,24,0.20
2011,03,02,04,25,0.00
2011,03,02,04,26,0.00
2011,03,02,04,27,0.00
2011,03,02,04,28,0.00
2011,03,02,04,29,0.00
2011,03,02,04,30,0.00
2011,03,02,04,31,0.00
2011,03,02,04,32,0.00
2011,03,02,04,33,0.00
2011,03,02,04,34,0.00
2011,03,02,04,35,0.00
2011,03,02,04,36,0.00
2011,03,02,04,37,0.00
2011,03,02,04,38,0.00
2011,03,02,04,39,0.00
2011,03,02,04,40,0.00
2011,03,02,04,41,0.00
2011,03,02,04,42,0.00
2011,03,02,04,43,0.00
2011,03,02,04,44,0.00
2011,03,02,04,45,0.00
2011,03,02,04,46,0.00
2011,03,02,04,47,0.00
2011,03,02,04,48,0.00
2011,03,02,04,49,0.00
2011,03,02,04,50,0.00
2011,03,02,04,51,0.00
2011,03,02,04,52,0.00
2011,03,02,04,53,0.00
2011,03,02,04,54,0.00
2011,03,02,04,55,0.00
2011,03,02,04,56,0.00
2011,03,02,04,57,0.00
2011,03,02,04,58,0.00
2011,03,02,04,59,0.00
2011,03,02,05,00,0.70
2011,03,02,05,01,3.00
2011,03,02,05,02,1.70
2011,03,02,05,03,0.00
2011,03,02,05,04,0.10
2011,03,02,05,05,0.00
2011,03,02,05,06,0.00
2011,03,02,05,07,0.00
2011,03,02,05,08,0.00
2011,03,02,05,09,0.00
2011,03,02,05,10,1.40
2011,03,02,05,11,0.10
2011,03,02,05,12,0.70
2011,03,02,05,13,1.70
2011,03,02,05,14,2.00
2011,03,02,05,15,0.70
2011,03,02,05,16,0.00
2011,03,02,05,17,0.00
2011,03,02,05,18,0.00
2011,03,02,05,19,0.00
2011,03,02,05,20,0.00
2011,03,02,05,21,0.00
2011,03,02,05,22,0.00
2011,03,02,05,23,0.00
2011,03,02,05,24,0.00
2011,03,02,05,25,0.60
2011,03,02,05,26,1.30
2011,03,02,05,27,0.60
2011,03,02,05,28,0.00
2011,03,02,05,29,0.00
2011,03,02,05,30,0.00
2011,03,02,05,31,0.00
2011,03,02,05,32,0.00
2011,03,02,05,33,0.00
2011,03,02,05,34,0.00
2011,03,02,05,35,0.00
2011,03,02,05,36,0.00
2011,03,02,05,37,0.00
2011,03,02,05,38,1.70
2011,03,02,05,39,1.50
2011,03,02,05,40,0.10
2011,03,02,05,41,0.00
2011,03,02,05,42,0.00
2011,03,02,05,43,0.00
2011,03,02,05,44,0.20
2011,03,02,05,45,1.80
2011,03,02,05,46,1.90
2011,03,02,05,47,0.50
2011,03,02,05,48,0.00
2011,03,02,05,49,0.00
2011,03,02,05,50,0.00
2011,03,02,05,51,1.80
2011,03,02,05,52,3.20
2011,03,02,05,53,3.20
2011,03,02,05,54,2.60
2011,03,02,05,55,2.60
2011,03,02,05,56,3.50
2011,03,02,05,57,3.30
2011,03,02,05,58,1.80
2011,03,02,05,59,0.70
2011,03,02,06,00,0.00
2011,03,02,06,01,0.40
2011,03,02,06,02,0.80
2011,03,02,06,03,1.80
2011,03,02,06,04,2.80
2011,03,02,06,05,3.10
2011,03,02,06,06,1.50
2011,03,02,06,07,1.30
2011,03,02,06,08,3.20
2011,03,02,06,09,2.70
2011,03,02,06,10,2.80
2011,03,02,06,11,0.90
2011,03,02,06,12,0.00
2011,03,02,06,13,0.00
2011,03,02,06,14,0.30
2011,03,02,06,15,1.80
2011,03,02,06,16,0.60
2011,03,02,06,17,2.10
2011,03,02,06,18,1.30
2011,03,02,06,19,0.70
2011,03,02,06,20,0.10
2011,03,02,06,21,0.80
2011,03,02,06,22,1.60
2011,03,02,06,23,2.30
2011,03,02,06,24,1.30
2011,03,02,06,25,2.80
2011,03,02,06,26,0.30
2011,03,02,06,27,0.80
2011,03,02,06,28,0.30
2011,03,02,06,29,1.90
2011,03,02,06,30,1.70
2011,03,02,06,31,0.20
2011,03,02,06,32,0.70
2011,03,02,06,33,0.80
2011,03,02,06,34,1.60
2011,03,02,06,35,3.30
2011,03,02,06,36,0.90
2011,03,02,06,37,0.00
2011,03,02,06,38,0.00
2011,03,02,06,39,0.30
2011,03,02,06,40,2.20
2011,03,02,06,41,3.00
2011,03,02,06,42,1.60
2011,03,02,06,43,2.10
2011,03,02,06,44,1.60
2011,03,02,06,45,1.60
2011,03,02,06,46,0.60
2011,03,02,06,47,0.10
2011,03,02,06,48,0.00
2011,03,02,06,49,0.00
2011,03,02,06,50,0.00
2011,03,02,06,51,0.00
2011,03,02,06,52,0.00
2011,03,02,06,53,0.00
2011,03,02,06,54,0.00
2011,03,02,06,55,0.00
2011,03,02,06,56,0.00
2011,03,02,06,57,0.00
2011,03,02,06,58,0.00
2011,03,02,06,59,0.00
2011,03,02,07,00,0.00
2011,03,02,07,01,0.00
2011,03,02,07,02,0.00
2011,03,02,07,03,1.80
2011,03,02,07,04,2.40
2011,03,02,07,05,0.90
2011,03,02,07,06,1.30
2011,03,02,07,07,1.60
2011,03,02,07,08,1.60
2011,03,02,07,09,1.60
2011,03,02,07,10,2.60
2011,03,02,07,11,1.80
2011,03,02,07,12,4.10
2011,03,02,07,13,2.30
2011,03,02,07,14,0.60
2011,03,02,07,15,2.70
2011,03,02,07,16,6.20
2011,03,02,07,17,4.50
2011,03,02,07,18,0.80
2011,03,02,07,19,2.30
2011,03,02,07,20,3.10
2011,03,02,07,21,3.40
2011,03,02,07,22,3.20
2011,03,02,07,23,2.40
2011,03,02,07,24,2.60
2011,03,02,07,25,6.80
2011,03,02,07,26,5.70
2011,03,02,07,27,4.70
2011,03,02,07,28,5.00
2011,03,02,07,29,4.70
2011,03,02,07,30,5.70
2011,03,02,07,31,5.60
2011,03,02,07,32,3.10
2011,03,02,07,33,3.50
2011,03,02,07,34,4.10
2011,03,02,07,35,1.30
2011,03,02,07,36,1.70
2011,03,02,07,37,2.10
2011,03,02,07,38,6.20
2011,03,02,07,39,5.40
2011,03,02,07,40,6.20
2011,03,02,07,41,5.30
2011,03,02,07,42,7.10
2011,03,02,07,43,5.20
2011,03,02,07,44,4.90
2011,03,02,07,45,8.00
2011,03,02,07,46,4.90
2011,03,02,07,47,7.10
2011,03,02,07,48,4.40
2011,03,02,07,49,2.20
2011,03,02,07,50,1.90
2011,03,02,07,51,3.20
2011,03,02,07,52,5.90
2011,03,02,07,53,7.90
2011,03,02,07,54,7.70
2011,03,02,07,55,6.00
2011,03,02,07,56,5.70
2011,03,02,07,57,7.90
2011,03,02,07,58,7.80
2011,03,02,07,59,5.70
2011,03,02,08,00,4.40
2011,03,02,08,01,6.70
2011,03,02,08,02,4.70
2011,03,02,08,03,7.70
2011,03,02,08,04,9.90
2011,03,02,08,05,6.30
2011,03,02,08,06,3.50
2011,03,02,08,07,5.90
2011,03,02,08,08,8.20
2011,03,02,08,09,6.70
2011,03,02,08,10,7.90
2011,03,02,08,11,9.00
2011,03,02,08,12,9.30
2011,03,02,08,13,9.40
2011,03,02,08,14,10.20
2011,03,02,08,15,9.60
2011,03,02,08,16,6.00
2011,03,02,08,17,9.20
2011,03,02,08,18,7.30
2011,03,02,08,19,7.80
2011,03,02,08,20,7.00
2011,03,02,08,21,5.80
2011,03,02,08,22,7.20
2011,03,02,08,23,2.50
2011,03,02,08,24,4.30
2011,03,02,08,25,1.30
2011,03,02,08,26,0.40
2011,03,02,08,27,0.80
2011,03,02,08,28,5.80
2011,03,02,08,29,3.40
2011,03,02,08,30,0.70
2011,03,02,08,31,2.30
2011,03,02,08,32,1.30
2011,03,02,08,33,2.90
2011,03,02,08,34,2.40
2011,03,02,08,35,3.30
2011,03,02,08,36,3.30
2011,03,02,08,37,3.90
2011,03,02,08,38,3.00
2011,03,02,08,39,2.60
2011,03,02,08,40,2.30
2011,03,02,08,41,4.70
2011,03,02,08,42,6.90
2011,03,02,08,43,6.90
2011,03,02,08,44,18.90
2011,03,02,08,45,20.20
2011,03,02,08,46,23.50
2011,03,02,08,47,14.20
2011,03,02,08,48,15.90
2011,03,02,08,49,12.40
2011,03,02,08,50,13.60
2011,03,02,08,51,8.60
2011,03,02,08,52,10.40
2011,03,02,08,53,6.40
2011,03,02,08,54,12.60
2011,03,02,08,55,10.80
2011,03,02,08,56,9.30
2011,03,02,08,57,9.40
2011,03,02,08,58,16.50
2011,03,02,08,59,19.70
2011,03,02,09,00,20.50
2011,03,02,09,01,16.20
2011,03,02,09,02,15.90
2011,03,02,09,03,21.40
2011,03,02,09,04,24.20
2011,03,02,09,05,24.70
2011,03,02,09,06,21.50
2011,03,02,09,07,16.20
2011,03,02,09,08,11.90
2011,03,02,09,09,14.10
2011,03,02,09,10,16.30
2011,03,02,09,11,33.60
2011,03,02,09,12,32.00
2011,03,02,09,13,31.80
2011,03,02,09,14,19.20
2011,03,02,09,15,19.20
2011,03,02,09,16,34.10
2011,03,02,09,17,24.90
2011,03,02,09,18,22.70
2011,03,02,09,19,21.00
2011,03,02,09,20,21.20
2011,03,02,09,21,19.30
2011,03,02,09,22,27.10
2011,03,02,09,23,29.50
2011,03,02,09,24,24.60
2011,03,02,09,25,25.30
2011,03,02,09,26,28.90
2011,03,02,09,27,29.50
2011,03,02,09,28,29.00
2011,03,02,09,29,25.00
2011,03,02,09,30,21.40
2011,03,02,09,31,25.90
2011,03,02,09,32,32.70
2011,03,02,09,33,28.30
2011,03,02,09,34,27.00
2011,03,02,09,35,37.00
2011,03,02,09,36,29.70
2011,03,02,09,37,33.80
2011,03,02,09,38,26.50
2011,03,02,09,39,27.40
2011,03,02,09,40,32.30
2011,03,02,09,41,27.60
2011,03,02,09,42,26.10
2011,03,02,09,43,13.30
2011,03,02,09,44,16.90
2011,03,02,09,45,23.10
2011,03,02,09,46,19.30
2011,03,02,09,47,21.00
2011,03,02,09,48,27.10
2011,03,02,09,49,27.00
2011,03,02,09,50,29.60
2011,03,02,09,51,30.20
2011,03,02,09,52,25.50
2011,03,02,09,53,20.20
2011,03,02,09,54,26.70
2011,03,02,09,55,23.50
2011,03,02,09,56,26.60
2011,03,02,09,57,31.60
2011,03,02,09,58,31.10
2011,03,02,09,59,27.90
2011,03,02,10,00,25.40
2011,03,02,10,01,28.90
2011,03,02,10,02,24.10
2011,03,02,10,03,23.00
2011,03,02,10,04,22.50
2011,03,02,10,05,18.50
2011,03,02,10,06,29.30
2011,03,02,10,07,33.60
2011,03,02,10,08,30.50
2011,03,02,10,09,30.50
2011,03,02,10,10,27.70
2011,03,02,10,11,24.60
2011,03,02,10,12,28.20
2011,03,02,10,13,19.50
2011,03,02,10,14,21.00
2011,03,02,10,15,19.80
2011,03,02,10,16,19.20
2011,03,02,10,17,30.90
2011,03,02,10,18,23.20
2011,03,02,10,19,22.20
2011,03,02,10,20,29.70
2011,03,02,10,21,32.00
2011,03,02,10,22,31.00
2011,03,02,10,23,29.00
2011,03,02,10,24,26.50
2011,03,02,10,25,33.50
2011,03,02,10,26,29.00
2011,03,02,10,27,23.40
2011,03,02,10,28,22.80
2011,03,02,10,29,29.70
2011,03,02,10,30,18.90
2011,03,02,10,31,32.50
2011,03,02,10,32,20.20
2011,03,02,10,33,27.10
2011,03,02,10,34,25.70
2011,03,02,10,35,27.70
2011,03,02,10,36,31.10
2011,03,02,10,37,28.50
2011,03,02,10,38,13.30
2011,03,02,10,39,25.60
2011,03,02,10,40,19.40
2011,03,02,10,41,29.30
2011,03,02,10,42,17.20
2011,03,02,10,43,24.80
2011,03,02,10,44,27.30
2011,03,02,10,45,50.90
2011,03,02,10,46,32.80
2011,03,02,10,47,20.60
2011,03,02,10,48,18.60
2011,03,02,10,49,23.20
2011,03,02,10,50,26.70
2011,03,02,10,51,28.20
2011,03,02,10,52,28.30
2011,03,02,10,53,23.80
2011,03,02,10,54,20.20
2011,03,02,10,55,20.30
2011,03,02,10,56,31.30
2011,03,02,10,57,23.60
2011,03,02,10,58,20.50
2011,03,02,10,59,23.50
2011,03,02,11,00,26.00
2011,03,02,11,01,25.40
2011,03,02,11,02,27.60
2011,03,02,11,03,19.40
2011,03,02,11,04,28.70
2011,03,02,11,05,32.40
2011,03,02,11,06,19.00
2011,03,02,11,07,27.30
2011,03,02,11,08,29.20
2011,03,02,11,09,22.30
2011,03,02,11,10,14.90
2011,03,02,11,11,19.40
2011,03,02,11,12,23.00
2011,03,02,11,13,19.00
2011,03,02,11,14,27.10
2011,03,02,11,15,21.40
2011,03,02,11,16,26.60
2011,03,02,11,17,27.00
2011,03,02,11,18,24.30
2011,03,02,11,19,16.50
2011,03,02,11,20,22.10
2011,03,02,11,21,17.90
2011,03,02,11,22,19.20
2011,03,02,11,23,27.50
2011,03,02,11,24,11.00
2011,03,02,11,25,18.10
2011,03,02,11,26,19.50
2011,03,02,11,27,22.00
2011,03,02,11,28,23.60
2011,03,02,11,29,26.80
2011,03,02,11,30,18.60
2011,03,02,11,31,21.70
2011,03,02,11,32,11.40
2011,03,02,11,33,16.90
2011,03,02,11,34,33.50
2011,03,02,11,35,17.10
2011,03,02,11,36,26.50
2011,03,02,11,37,42.80
2011,03,02,11,38,25.10
2011,03,02,11,39,30.50
2011,03,02,11,40,25.20
2011,03,02,11,41,28.10
2011,03,02,11,42,20.00
2011,03,02,11,43,24.00
2011,03,02,11,44,25.00
2011,03,02,11,45,20.40
2011,03,02,11,46,22.40
2011,03,02,11,47,18.20
2011,03,02,11,48,29.70
2011,03,02,11,49,21.80
2011,03,02,11,50,26.40
2011,03,02,11,51,30.10
2011,03,02,11,52,24.70
2011,03,02,11,53,26.80
2011,03,02,11,54,16.90
2011,03,02,11,55,15.30
2011,03,02,11,56,14.50
2011,03,02,11,57,21.10
2011,03,02,11,58,25.70
2011,03,02,11,59,23.20
2011,03,02,12,00,23.30
2011,03,02,12,01,15.00
2011,03,02,12,02,22.10
2011,03,02,12,03,21.50
2011,03,02,12,04,26.00
2011,03,02,12,05,22.30
2011,03,02,12,06,22.80
2011,03,02,12,07,24.60
2011,03,02,12,08,21.60
2011,03,02,12,09,25.00
2011,03,02,12,10,14.80
2011,03,02,12,11,19.80
2011,03,02,12,12,19.20
2011,03,02,12,13,17.00
2011,03,02,12,14,18.10
2011,03,02,12,15,17.20
2011,03,02,12,16,16.20
2011,03,02,12,17,24.40
2011,03,02,12,18,21.00
2011,03,02,12,19,31.80
2011,03,02,12,20,29.50
2011,03,02,12,21,19.00
2011,03,02,12,22,21.10
2011,03,02,12,23,19.10
2011,03,02,12,24,14.30
2011,03,02,12,25,18.20
2011,03,02,12,26,31.60
2011,03,02,12,27,18.30
2011,03,02,12,28,19.50
2011,03,02,12,29,13.00
2011,03,02,12,30,19.70
2011,03,02,12,31,14.30
2011,03,02,12,32,14.50
2011,03,02,12,33,14.50
2011,03,02,12,34,17.70
2011,03,02,12,35,15.50
2011,03,02,12,36,19.40
2011,03,02,12,37,22.60
2011,03,02,12,38,15.60
2011,03,02,12,39,13.10
2011,03,02,12,40,9.20
2011,03,02,12,41,25.10
2011,03,02,12,42,24.70
2011,03,02,12,43,26.00
2011,03,02,12,44,20.20
2011,03,02,12,45,31.00
2011,03,02,12,46,20.50
2011,03,02,12,47,23.40
2011,03,02,12,48,15.60
2011,03,02,12,49,17.40
2011,03,02,12,50,25.60
2011,03,02,12,51,17.40
2011,03,02,12,52,18.60
2011,03,02,12,53,24.30
2011,03,02,12,54,24.60
2011,03,02,12,55,26.10
2011,03,02,12,56,26.70
2011,03,02,12,57,21.30
2011,03,02,12,58,33.00
2011,03,02,12,59,23.20
2011,03,02,13,00,23.80
2011,03,02,13,01,32.70
2011,03,02,13,02,23.90
2011,03,02,13,03,27.00
2011,03,02,13,04,25.70
2011,03,02,13,05,34.70
2011,03,02,13,06,26.30
2011,03,02,13,07,23.80
2011,03,02,13,08,23.40
2011,03,02,13,09,28.00
2011,03,02,13,10,23.80
2011,03,02,13,11,27.10
2011,03,02,13,12,21.20
2011,03,02,13,13,22.90
2011,03,02,13,14,30.40
2011,03,02,13,15,29.50
2011,03,02,13,16,17.70
2011,03,02,13,17,14.30
2011,03,02,13,18,19.90
2011,03,02,13,19,23.20
2011,03,02,13,20,24.50
2011,03,02,13,21,25.30
2011,03,02,13,22,18.30
2011,03,02,13,23,21.50
2011,03,02,13,24,26.40
2011,03,02,13,25,27.30
2011,03,02,13,26,20.10
2011,03,02,13,27,34.30
2011,03,02,13,28,29.20
2011,03,02,13,29,22.20
2011,03,02,13,30,27.90
2011,03,02,13,31,19.70
2011,03,02,13,32,20.60
2011,03,02,13,33,23.80
2011,03,02,13,34,29.00
2011,03,02,13,35,25.00
2011,03,02,13,36,19.80
2011,03,02,13,37,18.90
2011,03,02,13,38,16.40
2011,03,02,13,39,18.20
2011,03,02,13,40,28.70
2011,03,02,13,41,22.80
2011,03,02,13,42,14.50
2011,03,02,13,43,21.50
2011,03,02,13,44,28.00
2011,03,02,13,45,23.50
2011,03,02,13,46,18.40
2011,03,02,13,47,24.80
2011,03,02,13,48,19.30
2011,03,02,13,49,26.80
2011,03,02,13,50,25.60
2011,03,02,13,51,27.80
2011,03,02,13,52,17.80
2011,03,02,13,53,18.70
2011,03,02,13,54,19.10
2011,03,02,13,55,18.40
2011,03,02,13,56,21.30
2011,03,02,13,57,26.10
2011,03,02,13,58,19.80
2011,03,02,13,59,24.20
2011,03,02,14,00,17.90
2011,03,02,14,01,21.60
2011,03,02,14,02,18.50
2011,03,02,14,03,15.80
2011,03,02,14,04,18.70
2011,03,02,14,05,17.90
2011,03,02,14,06,22.00
2011,03,02,14,07,18.50
2011,03,02,14,08,26.00
2011,03,02,14,09,24.80
2011,03,02,14,10,17.60
2011,03,02,14,11,24.50
2011,03,02,14,12,19.60
2011,03,02,14,13,16.50
2011,03,02,14,14,20.90
2011,03,02,14,15,18.00
2011,03,02,14,16,17.90
2011,03,02,14,17,18.10
2011,03,02,14,18,19.50
2011,03,02,14,19,25.40
2011,03,02,14,20,24.40
2011,03,02,14,21,18.00
2011,03,02,14,22,21.80
2011,03,02,14,23,24.60
2011,03,02,14,24,21.80
2011,03,02,14,25,19.90
2011,03,02,14,26,18.70
2011,03,02,14,27,16.10
2011,03,02,14,28,13.30
2011,03,02,14,29,14.50
2011,03,02,14,30,20.30
2011,03,02,14,31,21.30
2011,03,02,14,32,13.30
2011,03,02,14,33,22.60
2011,03,02,14,34,16.20
2011,03,02,14,35,15.80
2011,03,02,14,36,22.50
2011,03,02,14,37,21.70
2011,03,02,14,38,21.40
2011,03,02,14,39,23.00
2011,03,02,14,40,21.20
2011,03,02,14,41,21.50
2011,03,02,14,42,18.50
2011,03,02,14,43,15.20
2011,03,02,14,44,15.10
2011,03,02,14,45,10.10
2011,03,02,14,46,18.00
2011,03,02,14,47,20.70
2011,03,02,14,48,12.10
2011,03,02,14,49,13.10
2011,03,02,14,50,8.40
2011,03,02,14,51,8.50
2011,03,02,14,52,9.00
2011,03,02,14,53,11.60
2011,03,02,14,54,9.40
2011,03,02,14,55,18.00
2011,03,02,14,56,18.20
2011,03,02,14,57,11.70
2011,03,02,14,58,19.60
2011,03,02,14,59,19.10
2011,03,02,15,00,19.40
2011,03,02,15,01,14.60
2011,03,02,15,02,14.50
2011,03,02,15,03,14.50
2011,03,02,15,04,14.50
2011,03,02,15,05,18.10
2011,03,02,15,06,20.70
2011,03,02,15,07,20.50
2011,03,02,15,08,23.30
2011,03,02,15,09,15.40
2011,03,02,15,10,30.60
2011,03,02,15,11,26.40
2011,03,02,15,12,23.50
2011,03,02,15,13,18.70
2011,03,02,15,14,9.60
2011,03,02,15,15,18.20
2011,03,02,15,16,23.90
2011,03,02,15,17,29.70
2011,03,02,15,18,17.30
2011,03,02,15,19,23.30
2011,03,02,15,20,27.80
2011,03,02,15,21,23.00
2011,03,02,15,22,25.50
2011,03,02,15,23,20.10
2011,03,02,15,24,19.90
2011,03,02,15,25,23.60
2011,03,02,15,26,15.50
2011,03,02,15,27,11.40
2011,03,02,15,28,18.20
2011,03,02,15,29,15.00
2011,03,02,15,30,13.60
2011,03,02,15,31,15.90
2011,03,02,15,32,10.80
2011,03,02,15,33,9.50
2011,03,02,15,34,18.30
2011,03,02,15,35,12.90
2011,03,02,15,36,21.00
2011,03,02,15,37,10.60
2011,03,02,15,38,13.20
2011,03,02,15,39,20.80
2011,03,02,15,40,18.30
2011,03,02,15,41,21.10
2011,03,02,15,42,12.20
2011,03,02,15,43,13.60
2011,03,02,15,44,16.40
2011,03,02,15,45,14.50
2011,03,02,15,46,14.30
2011,03,02,15,47,8.90
2011,03,02,15,48,13.30
2011,03,02,15,49,16.70
2011,03,02,15,50,13.20
2011,03,02,15,51,14.70
2011,03,02,15,52,12.60
2011,03,02,15,53,11.50
2011,03,02,15,54,16.30
2011,03,02,15,55,9.10
2011,03,02,15,56,11.20
2011,03,02,15,57,11.90
2011,03,02,15,58,12.90
2011,03,02,15,59,18.10
2011,03,02,16,00,16.10
2011,03,02,16,01,17.70
2011,03,02,16,02,13.80
2011,03,02,16,03,8.00
2011,03,02,16,04,14.20
2011,03,02,16,05,8.10
2011,03,02,16,06,4.50
2011,03,02,16,07,11.70
2011,03,02,16,08,4.20
2011,03,02,16,09,5.90
2011,03,02,16,10,10.00
2011,03,02,16,11,10.50
2011,03,02,16,12,17.30
2011,03,02,16,13,8.50
2011,03,02,16,14,10.60
2011,03,02,16,15,10.00
2011,03,02,16,16,9.20
2011,03,02,16,17,12.60
2011,03,02,16,18,9.90
2011,03,02,16,19,11.00
2011,03,02,16,20,9.40
2011,03,02,16,21,8.60
2011,03,02,16,22,11.80
2011,03,02,16,23,5.00
2011,03,02,16,24,12.40
2011,03,02,16,25,13.10
2011,03,02,16,26,17.00
2011,03,02,16,27,15.60
2011,03,02,16,28,15.60
2011,03,02,16,29,18.80
2011,03,02,16,30,12.70
2011,03,02,16,31,11.30
2011,03,02,16,32,16.60
2011,03,02,16,33,16.10
2011,03,02,16,34,12.30
2011,03,02,16,35,14.30
2011,03,02,16,36,14.40
2011,03,02,16,37,12.40
2011,03,02,16,38,10.10
2011,03,02,16,39,8.40
2011,03,02,16,40,14.10
2011,03,02,16,41,8.70
2011,03,02,16,42,9.30
2011,03,02,16,43,11.40
2011,03,02,16,44,9.00
2011,03,02,16,45,12.60
2011,03,02,16,46,11.30
2011,03,02,16,47,11.30
2011,03,02,16,48,15.80
2011,03,02,16,49,14.70
2011,03,02,16,50,15.00
2011,03,02,16,51,13.50
2011,03,02,16,52,8.30
2011,03,02,16,53,13.90
2011,03,02,16,54,11.20
2011,03,02,16,55,18.50
2011,03,02,16,56,17.90
2011,03,02,16,57,17.80
2011,03,02,16,58,18.90
2011,03,02,16,59,14.50
2011,03,02,17,00,18.00
2011,03,02,17,01,13.50
2011,03,02,17,02,14.20
2011,03,02,17,03,14.50
2011,03,02,17,04,14.50
2011,03,02,17,05,16.60
2011,03,02,17,06,19.50
2011,03,02,17,07,15.90
2011,03,02,17,08,16.20
2011,03,02,17,09,12.00
2011,03,02,17,10,16.20
2011,03,02,17,11,21.20
2011,03,02,17,12,16.20
2011,03,02,17,13,20.00
2011,03,02,17,14,19.60
2011,03,02,17,15,11.90
2011,03,02,17,16,15.30
2011,03,02,17,17,14.10
2011,03,02,17,18,14.20
2011,03,02,17,19,14.50
2011,03,02,17,20,26.70
2011,03,02,17,21,20.40
2011,03,02,17,22,19.00
2011,03,02,17,23,12.50
2011,03,02,17,24,16.70
2011,03,02,17,25,21.00
2011,03,02,17,26,18.50
2011,03,02,17,27,15.60
2011,03,02,17,28,18.80
2011,03,02,17,29,17.20
2011,03,02,17,30,21.60
2011,03,02,17,31,16.80
2011,03,02,17,32,22.20
2011,03,02,17,33,20.30
2011,03,02,17,34,20.30
2011,03,02,17,35,15.40
2011,03,02,17,36,19.20
2011,03,02,17,37,17.00
2011,03,02,17,38,15.60
2011,03,02,17,39,16.90
2011,03,02,17,40,22.40
2011,03,02,17,41,17.10
2011,03,02,17,42,17.10
2011,03,02,17,43,24.30
2011,03,02,17,44,16.90
2011,03,02,17,45,16.60